Location: Village de las Huertas
(35.3014°N, 106.4095°W)
Time: 09:01:49
(UTC+00:00)

Gblst 52 Del rocket - Pass Details

Date: 29 October 2020
Orbit: 805 x 1365 km, 51.5° (Epoch: 04 December)

Event Time Altitude Azimuth Distance (km) Brightness Sun altitude
Exits shadow 12:24:21 12° 245° (WSW) 2,251 5.9 -12.9°
Maximum altitude 12:29:24 58° 323° (NW) 1,002 4.4 -11.9°
Drops below altitude 10° 12:35:28 10° 42° (NE) 2,653 7.3 -10.7°
Sets 12:38:16 0° 47° (NE) 3,684 8.1 -10.1°
